Regional Weather Roundup
Issued by NWS

Home | Current Version | Previous Version | Text Only | Print | Product List | Glossary Off
Versions: 1 2 3 4 5 6 7 8 9 10 11 12 13 14 15 16 17 18 19 20 21 22 23 24 25 26 27 28 29 30 31 32 33 34 35 36 37 38 39 40 41 42 43 44 45 46 47 48 49 50

563
ASUS45 KTFX 230910
RWRMT
MONTANA REGIONAL WEATHER ROUNDUP
NATIONAL WEATHER SERVICE GREAT FALLS MT
300 AM MDT WED AUG 23 2017

NOTE: "FAIR" INDICATES FEW OR NO CLOUDS BELOW 12000 FEET WITH NO
SIGNIFICANT WEATHER AND/OR OBSTRUCTIONS TO VISIBILITY.

MTZ001>007-043-231000-
WEST OF THE DIVIDE

CITY           SKY/WX    TMP DP  RH WIND       PRES   REMARKS
KALISPELL      CLEAR     49  41  74 CALM      30.01R
MISSOULA       CLOUDY    59  40  49 CALM      30.06S HAZE
BUTTE          CLEAR     53  33  46 SE3       30.22S
MULLAN PASS    CLEAR     66  34  30 SW6       30.19F
ANACONDA         N/A     57  30  35 S6        30.17S
DEER LODGE       N/A     52  37  58 CALM      30.17S
EUREKA           N/A     55  39  54 MISG      29.97
HAMILTON         N/A     64  34  32 S8        30.08S
LIBBY            N/A     55  39  54 CALM      29.98S
$$

MTZ008-052>055-231000-
SOUTHWEST MONTANA

CITY           SKY/WX    TMP DP  RH WIND       PRES   REMARKS
BOZEMAN        CLEAR     55  40  56 S6        30.13R
DILLON         CLEAR     57  33  40 SW7       30.17S
W YELLOWSTONE  CLOUDY    39  30  70 CALM      30.29F
ENNIS          PTCLDY    52  32  46 CALM      30.23S
$$

MTZ009-010-012-014-046-048-049-054-231000-
EAST SLOPES AND CENTRAL MONTANA

CITY           SKY/WX    TMP DP  RH WIND       PRES   REMARKS
CUT BANK       CLEAR     55  38  52 CALM      30.03S
GREAT FALLS    CLEAR     59  33  37 SW10      30.02F
MALMSTROM AFB  CLEAR     58  34  41 SW8       30.02S
HELENA         PTCLDY    62  37  39 W3        30.09R
AUGUSTA          N/A     61  33  34 NW13      30.07S
BOWMANS CRNR     N/A     57  33  39 SW10      30.06S
CHOTEAU          N/A     57  36  44 SW8       30.06S
FAIRFIELD        N/A     57  34  42 NW3       30.03F
POWER            N/A     55  32  41 NW5       30.02S
RAYNESFORD       N/A     56  36  46 SE3       30.06S
ULM              N/A     55  33  42 S5        30.03S
$$

MTZ011-013-016-021-045-047-050-051-231000-
NORTH CENTRAL MONTANA

CITY           SKY/WX    TMP DP  RH WIND       PRES   REMARKS
HAVRE          CLEAR     55  38  52 E3        29.97S
LEWISTOWN      CLEAR     54  35  48 SE9       30.06F
N BAR RANCH      N/A     55  32  41 W6        30.12F
CHINOOK          N/A     59  39  47 E5        29.98S
DENTON           N/A     60  35  40 S13       29.99F
GEYSER           N/A     64  34  33 SW13      30.04F
GRASS RANGE      N/A     61  33  34 W7        30.02F
JUDITH GAP       N/A     62  33  33 S9        30.11F
WINIFRED         N/A     65  33  30 NE10      30.03S
$$

MTZ017>020-022>027-061-062-231000-
NORTHEAST MONTANA

CITY           SKY/WX    TMP DP  RH WIND       PRES   REMARKS
GLASGOW        CLEAR     61  35  37 E12       30.02F
JORDAN           N/A     58  36  43 CALM      30.02F
SIDNEY         CLEAR     54  42  64 SW5       30.07S
WOLF POINT     CLEAR     58  37  45 NE5       30.04S
MALTA          PTCLDY    55  41  58 NE5       30.00S
PLENTYWOOD       N/A     64  39  39 S13       30.04F
POPLAR           N/A     66  39  37 S7        30.04F
$$

MTZ028>42-056>058-231000-
SOUTHCENTRAL AND SOUTHEAST MONTANA

CITY           SKY/WX    TMP DP  RH WIND       PRES   REMARKS
BAKER          CLEAR     53  42  66 SE9       30.10F
BILLINGS       CLEAR     65  34  31 NE3       30.04S
LIVINGSTON     CLEAR     51  35  54 CALM      30.13S
MILES CITY     CLEAR     61  38  42 NE6       30.03F
BIG TIMBER     PTCLDY    61  36  39 W10       30.13S
HARLOWTON        N/A     55  35  46 MISG      30.11S
LAUREL           N/A     64  36  34 W3        30.05R
$$

REGIONAL REPORTS...DAKOTAS

CITY           SKY/WX    TMP DP  RH WIND       PRES   REMARKS
WILLISTON      CLEAR     58  42  55 SW6       30.06S
MINOT          CLOUDY    56  45  66 E3        30.05F
DICKINSON      CLEAR     52  41  66 S9        30.09F
BEACH            N/A     57  41  54 SE9       30.13S
CROSBY           N/A     57  43  58 S14       30.03F
TIOGA            N/A     57  45  62 CALM      30.07F
WATFORD CITY     N/A     52  41  66 CALM      30.07S
BISMARCK       CLEAR     50  48  93 CALM      30.11F
GRAND FORKS    CLEAR     47  45  93 W3        30.09R
FARGO          CLEAR     50  46  86 W3        30.10S
BUFFALO SD       N/A     55  48  77 NE9       30.04S
RAPID CITY     CLEAR     53  46  77 CALM      30.07F
$$

REGIONAL REPORTS...WYOMING/IDAHO/WASHINGTON

CITY           SKY/WX    TMP DP  RH WIND       PRES   REMARKS
GILLETTE       CLEAR     56  39  53 N7        30.11R
SHERIDAN       CLEAR     53  42  66 CALM      30.08S
BUFFALO WY     CLEAR     67  32  27 SW9       30.15F
CODY           CLEAR     63  36  36 CALM      30.16F
YELLOWSTONE LA   N/A     39  33  79 CALM      30.39F
IDAHO FALLS    CLEAR     60  45  57 E6        30.17R
SALMON         CLEAR     51  40  65 CALM      30.14S
BOISE          MOCLDY    70  42  36 CALM      29.99F
SPOKANE        MOCLDY    66  41  40 S8        29.98R
$$

REGIONAL REPORTS...ALBERTA

CITY           SKY/WX    TMP DP  RH WIND       PRES   REMARKS
EDMONTON       PTCLDY    57  54  88 SE5       29.95F
CALGARY        PTCLDY    59  43  55 VRB2      30.00S
LETHBRIDGE     CLEAR     55  41  58 W6        29.96F
MEDICINE HAT   CLEAR     55  48  76 CALM      29.95F
$$

REGIONAL REPORTS...SASKATCHEWAN

CITY           SKY/WX    TMP DP  RH WIND       PRES   REMARKS
SWIFT CURRENT  CLEAR     61  41  48 S10       29.99F
REGINA         CLEAR     54  41  62 SE9       29.99F
SASKATOON      PTCLDY    55  50  82 W2        30.01R
$$




USA.gov is the U.S. government's official web portal to all federal, state and local government web resources and services.